Location: Recife
(8.0585°S, 34.8848°W)
Time: 11:08:00
(UTC-03:00)

S-56A Canister/Altair - Pass Details

Date: 19 April 2026
Orbit: 633 x 2484 km, 38.9° (Epoch: 20 May)

Event Time Altitude Azimuth Distance (km) Brightness Sun altitude
Rises 00:04:30 0° 243° (WSW) 3,133 - -78.3°
Reaches altitude 10° 00:06:42 10° 249° (WSW) 2,335 - -77.8°
Maximum altitude 00:11:52 46° 322° (NW) 1,279 - -76.6°
Drops below altitude 10° 00:19:15 10° 33° (NNE) 3,318 - -74.8°
Sets 00:22:57 0° 38° (NE) 4,608 - -73.9°
